Find STARLINK-37610

NORAD ID: 799501206 Int'l Des: 2026-161B Constellation: starlink operational

Aktuelle Ansicht

3D-Globus wird geladen...

About STARLINK-37610

STARLINK-37610 (NORAD 799501206) is a starlink constellation satellite launched Jul 14, 2026

Über STARLINK-37610

Beschreibung wird geladen...

Nächste Überflüge

Passes for default location (London). Set your location on the main map for personalized predictions.

Höhenverlauf

Loading altitude history...

Zweizeiliger Elementsatz

1 99999C 2026161B 26195.65256943 .00131310 00000-0 141570-4 0 1955
2 99999 53.1644 325.4968 0009406 279.7918 225.7045 16.09076569 14
Epoch: 14. Juli 2026 • Age: 6 hours